Wind_Speed
38 39 39 35 31 31 33 35 36 35 35 34 33 33 33 32 29 28 27 27 28 28 26 26 27 29 29 27 28 28 26 25 23 21 18 16 17 16 15 14 12 11 11 11 11 10 10 11 12 14 15 15 17 18 19 19 19 19 18 18 18 18 18 17 16 16 16 16 16 17 17 17 17 17 17 17 16 16 15 15 15 14 14 14 13 13
40 40 36 31 30 32 33 35 36 37 37 36 36 35 35 34 31 31 31 29 29 29 27 28 29 30 30 29 30 31 28 27 23 21 19 18 18 19 17 16 13 12 12 13 12 10 9 10 11 13 15 16 17 18 19 20 20 20 20 20 19 18 18 18 18 18 18 18 18 17 17 17 17 17 17 17 16 16 15 15 14 14 14 14 13 13
42 38 31 30 33 34 34 35 36 37 38 39 39 37 36 34 31 32 33 31 30 30 28 29 30 31 31 31 31 31 30 28 25 23 22 21 21 20 19 18 16 13 12 13 13 11 9 10 11 13 15 17 17 19 20 21 22 21 21 20 20 19 19 19 19 18 18 18 16 16 15 15 15 15 16 16 16 15 14 14 14 13 13 13 13 13
42 33 27 32 36 36 36 36 35 36 38 41 41 39 37 34 32 34 35 34 33 31 30 30 31 32 33 33 32 31 30 30 28 27 27 25 24 23 23 21 20 17 15 14 14 13 11 10 11 12 15 17 17 17 18 20 21 21 21 21 21 21 21 20 19 18 17 15 14 14 14 14 13 13 14 16 16 16 15 14 14 13 13 13 12 12
43 32 30 37 38 36 38 37 36 36 38 40 41 40 37 35 34 34 36 36 35 33 31 31 33 35 35 34 33 31 31 31 31 30 29 27 27 27 26 23 21 20 18 17 16 15 14 11 11 12 14 16 17 17 18 20 21 23 23 23 23 23 22 21 20 18 15 13 13 13 14 14 14 14 15 16 17 17 16 15 14 13 13 12 11 11
45 37 37 41 38 37 39 38 38 37 37 38 39 39 37 36 36 35 36 38 37 36 33 32 36 37 36 35 34 32 32 31 32 32 29 28 29 28 25 23 22 21 20 18 17 16 15 13 11 11 13 15 17 18 19 20 22 24 25 26 25 24 23 22 20 17 15 14 14 15 16 17 18 18 18 19 19 18 17 15 14 13 13 12 11 11
46 41 42 44 41 40 42 41 40 38 38 38 37 36 37 37 38 37 37 39 40 39 36 36 38 37 37 38 36 35 34 32 34 34 31 29 29 27 25 24 23 21 20 19 17 16 15 14 12 11 12 14 17 20 20 21 22 23 25 26 26 25 24 22 19 17 16 16 17 18 19 20 21 21 21 21 19 17 15 14 14 13 12 12 11 12
47 44 46 46 43 43 44 42 39 37 38 36 32 35 39 39 40 39 39 41 41 40 38 39 40 38 39 40 38 38 37 36 37 36 33 31 29 27 26 24 23 22 21 20 19 17 16 15 13 11 11 13 15 18 20 21 22 23 24 26 27 26 24 22 20 18 19 19 20 20 20 21 20 19 17 16 16 15 14 14 13 13 12 12 12 12
47 46 49 48 45 44 42 39 36 37 39 34 32 37 39 39 41 41 42 43 42 42 42 42 42 41 40 40 40 41 41 40 39 37 34 32 29 27 26 25 24 23 23 22 21 20 18 17 15 13 11 12 14 17 20 22 23 23 24 26 27 27 25 22 21 20 21 21 21 20 20 19 17 15 14 13 13 13 13 13 13 13 13 13 12 13
47 47 50 50 48 45 40 37 38 41 39 34 36 40 39 40 43 44 45 44 43 47 48 44 44 44 40 39 41 43 42 40 38 36 35 33 31 29 28 27 25 25 24 23 22 22 21 20 18 16 13 12 13 15 19 22 23 24 24 25 25 26 26 24 23 22 22 22 21 19 18 17 14 13 14 14 14 13 12 13 13 13 14 14 14 14
49 49 52 53 51 47 42 41 42 42 39 37 42 43 39 41 44 45 47 46 48 54 52 45 44 46 40 40 43 42 39 37 36 37 37 35 34 31 30 29 26 25 25 24 23 22 22 21 20 17 14 12 12 14 17 20 22 23 23 24 25 25 26 25 24 23 23 21 20 18 17 15 14 14 15 15 16 15 14 14 13 13 13 14 14 15
51 51 53 54 54 51 47 46 45 43 41 42 47 46 42 43 45 48 49 50 55 57 53 46 45 49 42 39 42 40 36 36 36 37 38 37 36 33 32 31 28 26 25 24 24 23 22 20 19 17 14 12 11 11 14 18 21 22 23 24 24 25 25 25 25 25 23 21 19 18 16 15 15 16 16 17 17 17 16 15 14 13 13 13 14 15
53 52 54 55 56 55 52 50 49 47 45 48 51 50 46 46 48 51 52 56 59 56 52 48 48 51 42 35 40 41 35 36 35 36 38 39 38 36 34 33 30 28 26 24 23 22 21 19 18 17 15 12 10 10 12 16 20 22 23 24 24 25 25 25 26 26 24 22 20 18 17 17 18 18 18 18 18 17 17 16 15 14 14 13 13 13
56 54 56 57 57 58 55 54 53 51 50 51 54 53 50 50 52 53 55 57 58 55 53 50 50 53 42 33 38 40 34 33 33 34 38 41 40 37 36 35 33 30 28 26 24 23 21 20 19 19 17 15 12 11 12 14 18 21 23 24 24 25 26 26 26 26 26 24 22 20 19 19 19 20 20 20 19 18 17 16 16 15 14 13 12 12
58 57 59 60 59 59 58 57 55 52 51 51 52 52 51 51 51 51 53 54 56 56 55 53 53 53 44 32 34 36 33 32 32 34 39 42 41 39 38 38 35 32 30 29 27 24 22 21 21 21 19 18 15 13 12 13 17 20 22 23 25 25 26 26 27 27 27 26 24 21 20 20 21 21 21 21 20 18 17 16 16 15 14 13 13 13
60 60 61 61 60 60 60 60 58 55 53 52 52 53 54 51 48 47 49 50 52 54 56 58 56 52 45 31 29 32 34 33 33 34 38 42 41 40 39 38 36 34 32 31 29 27 25 23 23 22 21 20 18 16 13 12 15 19 22 23 24 26 26 27 28 28 29 28 26 24 22 21 22 22 22 21 20 19 18 17 16 15 14 13 13 13
61 62 63 61 60 61 61 61 60 57 56 55 54 56 56 50 46 46 49 49 50 53 58 61 57 51 47 33 27 32 35 34 33 34 38 42 42 40 39 37 36 34 33 32 30 28 27 25 24 24 22 21 19 17 15 13 15 19 23 24 25 26 26 28 29 30 31 30 28 26 24 23 24 23 23 23 22 21 20 18 17 16 15 14 14 13
62 63 64 62 61 62 62 61 60 59 58 57 56 56 54 50 48 50 51 51 52 55 59 61 56 51 48 36 28 32 35 34 34 35 39 42 42 40 38 36 35 33 31 30 30 30 29 27 26 26 25 23 20 18 17 17 17 19 23 25 26 26 27 28 29 31 32 31 30 28 26 25 25 25 25 25 24 23 21 20 18 17 16 16 15 14
62 64 64 63 61 62 62 61 60 60 59 57 56 55 53 52 53 53 54 55 55 56 59 60 54 50 48 37 28 32 35 34 33 36 39 41 41 39 37 36 35 33 31 30 29 30 30 29 28 28 27 25 22 21 20 19 19 20 23 25 27 27 28 30 31 32 33 32 31 30 29 28 28 27 27 26 25 24 23 22 20 19 18 17 16 15
60 64 65 63 62 62 62 62 61 61 60 58 57 57 56 55 54 53 53 54 54 55 57 57 54 50 47 38 30 30 33 34 34 36 39 40 39 37 35 35 35 34 31 29 29 30 30 30 29 29 29 27 24 23 22 21 21 21 22 25 27 28 29 30 31 33 33 33 33 32 30 30 29 29 28 27 26 25 25 24 23 21 20 18 17 17
58 63 65 64 63 63 62 62 62 62 61 60 60 60 59 58 57 55 54 53 53 55 55 55 53 49 44 39 32 29 31 33 35 36 37 38 38 37 35 34 33 34 33 31 31 31 30 30 31 31 31 29 28 26 25 24 22 21 22 24 26 27 28 29 30 31 33 33 33 33 32 31 31 30 29 28 28 27 27 26 25 23 22 20 19 18
57 61 65 64 63 64 63 62 62 62 62 62 63 63 61 60 60 58 57 57 56 57 56 55 54 48 41 39 37 32 30 32 34 36 37 38 38 36 35 34 34 35 35 33 33 33 30 30 32 34 33 32 31 29 27 25 24 23 22 23 25 27 27 28 29 30 32 33 32 32 32 32 32 32 31 30 29 29 29 28 27 26 24 22 21 20
57 60 64 64 64 64 63 62 62 62 63 63 64 64 63 61 62 61 60 58 57 58 58 57 56 49 40 38 38 34 32 33 34 36 37 38 38 35 34 35 36 37 36 34 32 32 30 31 34 37 36 35 33 30 29 27 26 24 22 23 25 26 26 27 29 30 32 33 33 33 33 33 34 33 32 31 31 31 30 30 29 27 25 24 23 22
57 59 61 63 63 62 60 62 63 62 62 63 64 65 64 64 64 63 61 59 57 59 58 57 58 50 39 37 38 36 34 36 37 37 37 38 38 37 36 37 37 38 37 35 32 32 31 32 36 39 38 36 34 32 30 28 27 25 24 24 24 25 26 28 29 30 31 32 34 34 34 34 34 34 33 32 32 32 32 31 30 28 27 26 25 24
57 59 60 60 61 61 58 60 63 62 61 63 65 66 66 66 65 62 61 60 60 60 58 58 59 49 36 34 38 37 36 37 39 40 39 39 39 39 39 40 39 37 37 36 34 33 32 31 34 38 38 37 34 33 31 29 28 27 25 24 24 25 27 28 30 31 31 32 34 34 34 34 34 33 33 32 33 33 33 32 31 29 28 27 26 25
57 60 60 59 60 62 60 61 65 65 63 64 67 67 66 66 65 64 63 62 61 60 57 58 58 46 33 33 37 38 38 37 38 40 41 40 40 40 41 42 41 39 38 38 37 35 34 34 35 37 38 37 34 33 31 28 28 28 27 26 25 26 27 28 30 32 32 33 33 33 34 33 33 33 33 33 34 34 34 33 32 30 29 28 27 26
57 59 60 59 60 62 63 63 66 66 65 65 67 68 67 67 66 66 65 64 62 60 58 58 55 42 34 34 36 37 38 37 38 39 41 42 42 42 42 42 42 41 41 41 41 39 38 37 37 36 37 36 34 32 30 28 28 28 28 27 27 27 28 29 30 31 32 33 33 32 32 32 32 33 34 34 35 35 35 34 33 31 30 29 28 27
57 58 59 59 59 61 63 64 65 65 65 65 67 68 68 68 68 67 67 65 62 60 59 59 52 40 35 35 35 36 37 38 39 40 41 43 44 44 44 44 44 44 44 44 44 42 40 39 38 37 35 34 33 32 31 28 28 30 30 29 29 29 29 29 30 31 32 33 32 32 31 31 32 33 34 35 35 35 35 35 34 32 31 30 29 28
56 56 57 58 58 58 62 65 65 65 65 64 65 67 68 68 69 69 67 64 62 61 61 58 48 39 35 33 33 36 38 39 40 41 42 43 44 44 44 45 45 46 46 46 46 45 42 39 38 37 36 35 34 34 33 31 29 31 31 31 31 31 31 30 30 31 31 31 31 31 31 31 33 34 35 35 35 35 35 35 34 33 32 30 29 29
54 54 54 57 58 57 60 65 66 66 66 65 64 65 67 68 69 69 67 64 63 63 60 54 46 41 36 32 32 37 40 41 42 42 42 43 44 45 45 46 46 47 49 49 48 47 45 42 39 38 38 38 37 36 35 33 31 31 32 32 32 31 31 31 31 31 31 30 30 31 32 33 33 34 35 34 34 34 34 35 34 33 32 31 30 29
49 52 52 55 57 55 57 62 66 66 65 65 64 63 66 68 69 69 67 65 65 63 59 52 46 42 37 33 34 39 41 43 42 41 42 43 45 46 47 47 48 49 51 52 51 50 48 44 41 40 40 40 38 36 35 33 32 32 32 32 32 32 31 31 31 31 30 30 30 31 32 32 33 34 34 34 34 34 34 34 34 33 32 31 30 29
41 48 51 53 55 55 55 58 64 66 65 65 64 63 65 68 69 68 67 66 65 63 59 53 46 42 39 35 36 41 43 44 42 41 41 43 45 48 48 48 48 51 53 54 53 51 48 46 44 41 40 40 37 35 34 33 32 33 32 32 32 32 32 32 31 31 31 31 32 32 31 31 32 33 33 33 34 34 34 34 33 33 31 30 30 29
37 42 46 50 53 54 53 55 61 65 66 66 65 63 64 67 69 68 67 67 66 63 59 53 47 43 40 36 37 41 44 44 42 40 39 41 44 47 48 47 48 49 50 48 45 43 43 45 46 43 41 39 36 33 32 32 32 32 31 32 33 33 32 32 32 32 33 33 32 31 30 31 31 32 33 33 34 34 34 33 33 32 31 31 30 29
36 39 41 45 50 52 53 54 57 63 67 67 65 62 64 67 68 68 68 68 67 64 59 53 47 44 41 38 38 40 42 43 41 38 37 38 43 46 47 46 45 43 41 39 38 39 41 44 46 45 42 39 35 32 32 32 32 31 31 32 34 34 32 32 32 34 34 34 32 31 30 30 30 31 32 33 33 34 33 32 32 32 31 31 30 28
36 38 38 41 45 48 51 53 55 61 67 68 64 61 64 66 67 68 69 69 68 64 59 54 49 45 42 40 40 40 41 41 40 37 35 36 39 42 40 37 35 34 34 34 35 37 41 44 46 46 44 40 36 34 34 33 32 32 32 34 35 34 33 32 33 35 35 34 33 31 30 29 29 30 31 31 32 32 31 31 31 31 31 30 29 27
36 38 38 38 40 43 49 54 56 60 66 67 64 61 63 66 66 67 69 69 67 64 60 55 50 46 44 42 42 42 41 40 39 37 35 35 35 33 29 26 27 29 30 31 33 35 38 41 44 45 44 41 38 37 36 35 34 32 32 35 36 35 33 33 34 35 36 35 33 31 30 29 29 29 29 29 29 29 30 30 30 30 30 29 28 27
36 38 39 38 37 40 47 54 56 56 60 65 65 61 63 66 66 66 68 69 67 64 61 56 50 47 46 45 44 43 42 41 40 37 36 36 33 28 25 25 26 27 28 31 34 36 37 39 41 43 44 42 40 39 38 37 35 32 33 36 37 35 34 34 35 36 36 35 33 31 30 29 29 29 28 28 27 27 28 29 29 30 29 28 28 27
37 40 40 39 37 38 44 52 55 54 57 63 64 62 63 65 66 66 67 68 67 65 62 56 51 49 48 47 45 44 44 44 42 39 37 36 32 30 30 29 26 24 25 29 32 35 36 37 39 41 43 43 41 40 39 38 36 34 35 38 38 35 35 34 35 35 35 34 33 32 31 30 29 29 28 27 26 26 27 28 28 29 28 27 26 26
39 41 41 41 39 38 42 50 54 54 56 60 63 62 61 63 64 65 66 67 67 65 62 57 53 51 50 48 46 46 47 46 43 41 39 37 35 35 35 32 27 24 23 25 28 31 33 35 38 40 42 43 42 41 41 40 38 36 38 40 38 36 35 34 34 34 34 33 33 32 32 31 30 28 27 26 25 26 26 26 27 26 26 25 25 25
40 43 43 43 42 38 41 47 51 52 52 54 59 62 61 61 63 64 65 68 67 65 62 58 54 53 51 48 47 48 50 49 45 42 41 40 39 40 39 35 31 27 25 24 25 26 28 32 35 37 38 40 42 43 42 40 39 39 40 40 39 37 35 33 33 33 33 33 33 32 31 30 29 27 26 25 25 25 25 25 24 24 23 23 23 23
35 44 45 44 41 37 39 45 49 50 49 50 56 62 61 60 61 63 65 68 66 64 62 59 55 54 52 49 48 50 52 50 47 44 43 43 44 44 41 37 34 30 28 25 23 22 24 27 30 32 35 38 40 41 41 40 40 40 41 41 40 38 35 33 32 32 32 32 31 30 29 28 27 26 25 25 24 24 24 23 23 22 22 22 22 22
29 40 45 43 39 37 39 44 47 49 49 48 53 59 62 61 61 63 65 66 65 63 61 59 56 54 53 51 50 52 53 52 49 47 46 47 48 46 44 40 37 34 32 29 24 22 24 26 29 31 32 35 37 39 39 40 40 40 41 41 39 37 35 34 33 32 31 29 29 28 27 27 26 26 25 25 24 23 23 22 22 22 21 21 20 20
24 35 39 38 37 37 40 44 46 47 48 48 51 57 61 61 61 63 64 64 64 62 58 57 58 56 54 53 53 53 55 54 50 48 48 50 50 48 46 43 39 36 35 33 27 24 25 26 29 30 31 33 35 37 40 40 40 41 41 40 38 37 36 35 32 31 29 28 28 28 27 27 27 27 26 25 24 24 24 23 23 22 21 21 20 20
25 31 33 34 35 38 41 44 45 45 46 47 50 55 60 60 59 61 62 62 63 61 56 55 57 57 55 54 54 55 56 56 52 50 51 52 52 50 47 45 43 40 38 35 30 25 24 25 29 31 32 33 35 36 38 39 40 41 41 40 39 38 37 35 32 31 31 31 31 30 29 29 29 28 28 27 26 26 25 25 25 24 23 23 22 22
31 32 33 34 36 38 41 43 44 44 45 47 50 53 58 60 57 57 59 61 62 60 55 52 55 58 56 54 55 56 57 56 54 53 53 54 54 52 49 47 46 44 40 36 31 26 23 25 30 33 34 34 35 35 36 38 40 42 42 41 40 38 37 35 34 34 34 34 33 32 31 32 31 30 30 30 29 28 28 28 28 27 27 26 25 25
27 29 31 32 34 37 40 41 42 44 44 47 51 53 55 58 58 56 56 59 60 59 56 52 53 57 57 55 55 57 58 57 56 56 55 55 55 54 51 49 48 46 42 37 31 27 24 27 32 35 36 36 35 33 34 37 40 42 43 42 41 39 38 37 38 39 39 38 36 35 35 34 33 33 33 33 32 32 32 31 30 30 30 29 29 29
22 24 28 31 31 35 40 40 41 44 45 46 50 53 54 55 57 57 57 58 58 56 55 53 53 55 58 57 56 58 59 59 59 58 57 56 56 55 53 51 49 46 42 38 32 28 26 28 34 37 37 37 36 33 33 36 39 41 42 43 42 41 40 40 41 43 42 40 39 39 38 38 37 37 37 36 35 35 35 35 34 33 33 32 31 32
19 21 26 30 30 31 36 39 40 43 46 46 48 52 54 54 54 55 57 58 56 53 53 54 54 54 57 57 57 58 60 60 60 61 59 57 57 56 55 52 50 47 43 38 34 30 28 30 35 39 39 38 36 34 33 35 37 39 41 42 42 42 41 41 43 44 43 42 43 43 42 42 42 41 41 40 38 38 39 40 39 38 37 35 34 34
19 20 22 27 29 30 34 38 40 43 46 48 49 51 54 55 54 52 54 57 56 51 50 53 54 55 57 58 58 59 60 61 62 62 61 60 58 57 56 54 51 47 44 40 35 32 31 32 36 40 41 40 38 37 35 35 36 38 39 40 41 41 41 42 43 42 42 43 44 45 46 46 46 46 46 44 42 42 44 44 43 42 41 39 37 37
20 20 21 24 28 32 36 39 42 43 45 48 51 52 52 55 56 53 51 54 54 50 49 51 54 55 58 59 59 59 60 62 63 63 62 62 61 59 57 56 52 48 45 42 38 35 33 34 37 40 43 42 41 39 37 37 37 38 39 40 40 41 41 42 42 40 39 40 40 42 44 45 45 46 46 46 46 47 48 48 46 45 44 42 39 38
18 19 19 22 25 31 36 39 42 45 46 48 51 52 52 54 57 55 54 54 53 50 50 52 54 57 59 60 59 60 61 61 63 64 63 62 62 62 59 57 53 50 47 44 41 38 36 36 38 41 42 43 43 42 40 38 38 38 39 40 40 41 42 42 42 42 41 41 41 42 42 43 43 43 44 45 45 46 47 46 44 44 44 43 41 40
Wind_Direction
230 227 226 225 226 228 228 227 228 229 230 229 227 227 227 226 224 225 226 226 227 226 218 206 201 206 208 210 222 222 212 210 206 197 188 182 185 192 195 194 192 183 162 148 145 149 159 167 171 172 173 176 176 175 173 172 173 175 176 178 177 174 169 166 165 165 166 165 164 164 164 161 158 157 156 156 155 152 148 144 140 139 138 134 132 129
230 227 224 222 223 225 225 224 224 224 226 228 228 227 227 226 222 223 225 224 227 226 219 210 201 205 208 204 216 222 215 211 204 196 193 190 189 192 194 191 185 181 166 149 142 145 155 162 169 172 171 172 175 176 174 173 174 174 175 178 176 173 170 169 170 172 173 173 172 171 167 164 162 161 161 159 157 154 151 147 143 142 140 136 135 133
230 227 221 219 221 223 223 223 221 220 221 224 226 226 227 227 223 224 227 225 225 225 220 214 203 203 208 204 209 217 217 213 204 196 196 194 193 192 192 187 177 172 168 156 146 143 151 160 166 172 173 173 175 179 178 175 175 173 174 177 173 172 174 174 175 177 179 179 175 170 166 165 165 163 161 158 156 155 152 149 146 144 142 138 137 134
231 229 222 221 221 221 222 222 221 218 217 219 222 223 224 225 223 223 228 227 225 222 219 217 207 201 207 204 204 211 215 214 206 199 198 196 193 193 194 191 181 173 168 161 152 146 149 159 165 172 177 175 174 179 180 177 176 174 173 174 174 175 176 177 179 182 180 177 170 164 163 162 160 160 160 159 158 157 156 154 151 147 144 140 138 133
229 224 220 222 221 220 221 221 221 218 216 217 219 220 220 222 223 222 227 230 229 225 220 220 212 203 206 206 201 207 214 213 210 207 205 199 196 197 199 199 194 185 176 166 159 153 152 158 164 171 178 177 175 177 180 179 179 178 174 174 178 178 177 179 183 182 177 169 163 161 159 155 153 156 159 161 162 163 163 161 156 150 145 141 137 132
226 219 216 220 219 218 220 220 220 219 217 217 217 217 218 219 222 222 225 230 231 229 223 223 219 206 203 206 200 203 211 211 211 213 211 205 202 202 201 201 201 195 184 173 165 160 156 156 161 168 177 181 179 178 181 183 184 182 178 176 178 179 179 181 181 177 171 165 161 160 159 157 157 160 165 168 170 171 168 163 157 150 145 141 137 131
224 217 217 220 217 215 217 217 218 218 217 216 215 217 218 218 220 220 223 227 230 231 226 225 225 211 203 206 200 200 207 207 210 213 211 210 207 202 200 201 204 200 189 176 167 162 157 156 161 168 176 184 186 184 183 185 187 187 183 179 179 180 181 181 177 172 168 164 163 165 167 167 167 170 173 176 176 173 167 160 156 150 144 141 137 130
224 218 219 220 218 216 216 214 215 218 219 216 214 218 219 217 218 218 220 225 228 231 229 227 228 218 206 206 202 200 202 203 209 213 212 213 211 202 199 199 202 204 195 181 169 163 161 160 164 171 178 186 191 190 187 187 188 190 189 185 182 181 181 179 174 170 169 168 170 174 175 176 178 179 179 179 177 172 166 160 155 149 143 141 137 130
223 219 221 221 219 219 217 214 213 218 219 214 212 219 221 217 216 216 218 222 226 230 229 227 229 225 210 204 205 203 202 202 206 212 215 216 212 203 199 198 199 204 201 188 175 168 167 166 167 173 181 188 191 193 192 190 190 190 191 191 187 183 181 177 173 171 173 175 178 180 181 183 185 183 177 174 174 172 167 161 155 149 144 142 138 130
221 218 220 221 220 218 216 214 212 215 215 209 212 219 220 219 217 216 218 218 221 228 228 224 228 229 213 203 208 207 204 203 203 210 217 217 213 205 199 199 198 203 204 196 185 178 176 175 174 174 179 188 192 194 196 196 194 192 191 193 192 188 183 177 174 175 179 182 184 184 185 188 186 179 174 170 171 171 167 164 159 152 147 144 139 132
218 217 219 219 219 216 212 213 212 212 211 206 212 217 217 218 218 217 217 216 219 224 225 221 225 233 219 201 210 212 205 203 202 208 216 217 214 208 202 201 200 202 205 200 195 189 185 183 178 175 178 187 193 195 198 198 198 195 192 192 194 193 187 180 177 179 183 186 186 186 186 186 181 177 176 172 170 169 168 168 165 158 151 145 139 135
217 216 219 219 219 215 211 212 211 210 208 206 212 216 214 216 217 218 216 215 217 221 223 219 221 233 223 199 209 216 204 201 203 205 213 216 214 209 204 202 200 201 204 204 202 198 195 189 179 176 179 184 192 196 198 199 199 197 194 192 193 194 191 186 182 182 186 187 187 187 184 179 178 179 179 176 173 170 170 171 168 161 156 150 146 143
217 214 218 219 218 216 212 211 212 209 206 206 211 215 214 214 215 217 216 216 218 220 222 218 218 230 225 197 204 216 205 200 203 204 210 215 214 209 205 202 199 200 204 208 210 208 205 194 181 180 180 179 187 193 195 198 199 198 197 194 193 193 193 191 187 185 187 189 189 186 181 178 179 181 183 181 178 176 176 173 170 168 165 160 155 149
217 213 215 217 217 216 213 212 212 210 208 208 210 214 214 214 215 215 216 217 219 221 223 219 218 229 229 201 200 213 208 199 200 202 206 212 213 210 206 202 200 202 205 209 212 213 212 202 189 186 182 178 181 187 194 195 197 198 198 197 194 193 193 193 191 189 188 191 192 189 182 180 182 184 186 186 184 183 181 178 176 175 172 165 156 147
216 213 215 215 215 216 214 213 212 211 211 211 212 215 217 218 217 217 218 219 219 221 223 220 219 228 231 209 196 208 211 201 198 200 203 208 211 209 207 204 203 204 207 211 214 215 215 209 199 194 189 185 181 181 191 194 194 196 197 199 198 195 194 193 194 192 191 193 195 192 185 182 186 188 189 190 190 189 186 183 181 179 176 168 157 148
215 214 215 216 215 215 214 213 212 210 211 212 213 216 217 218 219 220 223 224 224 224 226 224 221 227 232 215 190 201 211 204 197 198 200 204 208 208 209 208 206 207 210 213 216 216 216 213 210 204 197 193 188 182 185 192 194 194 195 199 200 198 195 194 194 195 195 196 196 193 188 187 189 191 191 193 194 193 191 188 185 183 181 173 162 157
216 214 215 215 215 215 214 214 212 210 211 212 213 216 217 216 217 220 222 224 225 225 228 228 225 227 233 223 194 199 209 205 197 195 198 202 206 209 210 209 210 211 213 214 216 217 216 215 216 213 205 200 196 186 183 189 195 196 196 197 200 201 199 197 196 196 198 199 198 194 190 190 193 194 193 194 196 195 194 191 189 187 183 176 173 173
216 214 214 214 215 215 215 214 213 212 212 213 214 216 217 216 217 219 219 221 223 224 227 230 227 226 231 226 202 200 207 204 198 195 197 200 205 209 210 211 213 213 213 213 214 216 215 214 216 215 208 203 198 192 189 192 196 199 198 198 199 200 199 200 199 199 200 201 200 196 192 192 195 197 196 196 196 194 193 193 194 191 187 183 182 183
217 215 215 214 214 215 215 213 213 213 212 212 215 216 218 219 218 218 218 217 220 222 226 230 227 224 228 224 205 201 206 205 199 196 196 199 205 208 209 211 213 213 211 211 213 215 214 213 215 214 207 201 198 197 198 199 200 202 200 200 200 200 200 201 201 201 202 202 202 200 195 194 196 198 198 197 195 192 192 195 196 195 192 189 188 190
219 217 215 213 214 215 215 213 212 213 212 211 214 215 216 219 220 221 221 220 221 224 226 230 228 223 224 223 210 201 204 205 202 199 198 199 203 205 207 210 213 213 212 210 213 216 213 212 214 212 206 200 198 200 204 205 205 205 204 202 201 202 203 204 203 204 204 204 203 203 199 196 198 200 200 197 194 192 193 196 197 197 196 195 195 197
222 218 216 214 214 214 215 214 211 212 212 210 212 215 215 217 219 220 221 220 222 226 228 231 230 224 221 223 217 205 202 205 206 202 199 200 201 202 204 208 212 214 212 210 213 216 214 211 210 207 203 200 200 202 205 207 206 207 207 205 204 204 205 206 206 207 207 207 206 205 202 200 200 201 201 198 195 194 195 197 198 198 198 198 200 203
224 221 216 214 214 214 214 214 212 212 213 211 211 214 215 216 218 219 219 218 219 223 226 229 230 224 218 220 220 210 201 202 206 205 201 199 200 201 203 207 213 215 212 211 214 217 217 213 209 205 203 203 204 205 205 206 206 206 207 206 206 206 206 207 209 209 209 210 209 208 206 203 202 203 201 199 197 196 197 198 199 200 200 200 203 207
226 223 217 214 214 214 213 214 214 213 213 212 212 214 215 216 218 219 219 218 219 222 224 227 229 222 212 214 218 212 202 198 203 206 203 202 202 201 203 207 211 214 212 211 214 218 219 216 210 206 205 206 207 207 207 206 205 205 206 208 208 206 206 207 209 210 210 210 211 211 210 207 206 205 203 201 199 199 200 201 202 202 201 203 206 209
226 223 220 215 213 213 214 215 215 214 214 213 212 213 214 216 219 220 220 218 219 222 224 227 229 221 209 210 215 212 204 198 199 203 203 203 205 204 205 207 209 212 213 211 211 215 219 218 213 209 208 209 210 210 211 208 205 204 206 210 210 207 206 207 208 211 211 211 211 212 212 210 209 208 206 202 201 202 203 204 205 204 203 205 208 211
225 223 220 216 212 212 214 216 215 214 214 213 212 213 213 215 218 220 221 220 220 222 223 226 229 222 208 208 214 212 207 200 198 201 201 201 203 204 204 206 206 209 212 211 210 212 216 217 214 211 211 213 214 215 215 212 208 206 207 209 211 210 209 208 208 209 211 212 213 214 214 213 212 211 209 206 203 204 206 207 207 206 206 208 211 213
224 222 220 217 213 211 211 215 214 212 212 212 212 213 213 214 216 218 221 222 221 221 223 226 229 223 208 207 214 215 211 204 200 201 202 201 201 201 202 204 205 208 209 209 210 211 211 210 211 213 214 215 217 219 220 218 213 211 209 209 210 211 211 210 209 209 210 212 214 215 215 215 214 213 212 209 207 206 208 209 210 209 208 210 213 215
223 221 220 218 214 210 209 212 214 212 212 212 212 212 213 213 215 216 219 221 222 221 222 226 229 222 208 208 214 216 214 208 204 202 202 202 202 201 201 202 203 206 207 208 210 211 209 207 210 214 215 217 220 222 224 223 220 217 215 212 210 212 213 212 210 210 210 212 213 214 216 216 216 215 214 213 210 209 209 211 212 211 211 212 214 216
223 221 221 219 216 211 209 211 213 213 212 211 212 212 213 213 214 216 218 220 222 221 222 225 226 219 210 209 213 217 216 211 208 205 202 203 204 204 203 202 201 203 204 205 208 209 209 208 210 212 213 214 218 223 226 226 224 221 219 215 213 213 213 213 212 212 212 212 212 213 215 215 216 216 216 215 213 211 211 212 213 214 214 214 215 217
224 223 222 220 217 213 209 209 212 214 212 211 211 212 213 214 214 216 217 219 221 222 222 223 221 216 214 211 210 217 219 215 212 209 204 203 204 206 206 205 203 202 203 204 205 205 206 207 210 212 211 212 215 221 226 226 225 225 222 220 218 216 214 214 214 213 213 212 211 212 213 213 214 215 216 216 215 214 213 214 215 216 216 217 217 218
224 225 225 222 218 214 210 209 211 213 212 210 211 212 213 214 214 215 216 218 220 223 223 222 218 215 215 210 207 214 220 219 215 210 205 203 204 206 208 207 205 203 203 204 204 203 201 202 207 210 211 212 214 218 223 225 224 225 224 223 222 220 217 215 215 214 213 212 210 211 212 211 212 214 215 217 217 216 216 216 216 217 218 218 219 220
224 225 226 225 220 215 211 210 210 212 212 210 210 211 213 214 214 215 216 217 220 222 222 220 215 213 213 210 206 210 216 220 217 211 206 205 204 206 208 208 206 204 204 205 205 206 203 202 205 209 210 212 213 215 220 223 223 223 222 222 223 223 220 217 216 215 214 211 210 211 212 212 212 213 214 216 217 218 218 217 217 218 219 220 221 222
225 226 226 226 223 216 212 212 211 211 212 211 209 210 212 213 213 214 215 217 219 221 221 218 213 209 210 209 205 207 213 218 219 214 209 206 205 207 209 209 208 207 207 207 207 209 208 205 205 208 210 210 210 212 217 221 222 222 221 222 224 224 222 219 216 215 214 212 211 212 212 213 214 214 214 215 216 218 218 218 217 219 220 221 222 223
225 226 227 228 225 218 214 213 211 211 212 211 209 209 212 213 212 213 214 216 218 220 219 216 210 206 206 206 205 206 211 217 218 216 212 207 205 207 210 211 211 212 212 211 212 213 212 211 209 207 209 209 207 210 217 221 223 223 222 223 225 225 223 219 216 215 214 213 213 212 213 214 215 215 216 216 217 218 218 218 218 219 220 221 222 224
225 225 227 228 226 220 216 214 212 211 212 210 207 208 212 212 212 213 214 216 217 218 218 214 208 203 202 202 204 207 210 214 217 216 212 206 204 206 210 212 214 216 216 216 216 215 215 216 213 208 207 206 204 208 215 219 222 223 222 222 224 225 224 219 215 214 214 214 213 213 213 215 215 216 217 218 219 219 219 219 220 221 222 222 224 225
227 226 226 228 227 223 218 215 213 212 211 208 205 207 211 212 212 213 214 215 216 217 217 213 207 202 199 199 202 206 208 212 215 214 209 205 204 205 208 210 212 215 216 215 216 215 216 218 216 211 206 202 202 208 214 216 219 221 221 221 223 225 224 219 214 213 214 214 214 214 214 215 216 217 218 219 220 220 220 220 221 222 224 224 226 227
231 228 226 226 226 223 220 217 214 210 209 208 206 206 210 211 211 212 214 215 215 216 215 212 206 201 198 196 199 204 207 210 211 207 203 204 205 202 200 203 209 213 214 215 215 216 218 218 218 214 207 201 203 210 213 215 217 220 221 221 222 224 223 218 214 213 214 214 214 215 215 215 216 218 218 220 220 220 220 221 222 223 224 225 226 228
234 229 226 225 224 223 222 218 213 209 208 208 206 205 208 210 211 212 214 215 215 214 214 211 205 200 197 195 197 202 204 205 204 200 200 203 202 197 198 204 211 215 217 218 216 215 215 216 216 214 207 202 205 212 214 215 217 219 220 220 221 224 223 219 214 212 214 215 215 216 217 217 218 218 219 219 220 220 221 221 223 225 226 227 228 228
232 228 225 223 222 222 222 219 214 210 209 208 205 204 207 210 211 212 214 216 215 214 213 209 204 200 198 195 196 199 200 200 199 198 199 201 199 197 199 202 206 214 220 220 218 215 214 214 213 211 206 204 206 212 215 217 217 219 219 219 221 223 223 219 215 213 214 215 216 217 218 219 220 221 221 220 219 219 220 221 223 225 227 227 228 228
226 225 223 221 219 218 220 218 215 211 209 207 205 204 206 209 211 212 214 216 215 213 212 209 204 201 200 197 196 198 199 198 198 198 199 199 197 196 196 196 199 209 217 220 218 216 213 211 211 210 207 206 207 212 216 217 216 217 217 217 219 221 221 219 216 214 214 215 216 218 219 221 222 223 223 221 219 218 219 220 221 223 223 224 225 226
219 218 219 219 217 216 217 217 215 212 208 206 205 204 205 209 211 212 215 216 215 213 211 208 204 202 200 198 196 197 198 198 198 198 199 198 196 195 195 194 197 204 211 214 213 212 210 209 208 209 210 209 210 213 217 217 215 214 214 215 217 219 219 217 215 213 213 214 216 218 220 221 223 223 221 219 217 216 216 217 218 219 220 221 224 226
218 212 214 216 215 212 213 215 215 212 207 205 205 204 205 208 211 212 214 214 214 214 212 207 204 203 201 198 196 196 198 198 197 197 198 197 195 195 195 196 198 203 209 211 208 207 208 208 207 207 209 211 212 215 217 215 212 211 213 215 217 217 217 215 212 212 212 214 215 217 218 219 218 216 214 212 211 211 212 213 214 216 217 219 222 225
219 205 205 210 210 207 209 212 214 212 206 203 204 204 205 208 211 212 213 214 215 215 212 208 204 203 203 199 196 197 198 198 197 196 196 196 196 196 197 198 200 203 208 210 207 205 205 207 208 207 208 210 212 214 215 213 210 210 213 216 217 217 217 215 213 212 211 211 212 214 212 210 208 206 205 204 204 205 206 208 211 213 215 218 221 223
207 195 194 200 203 203 206 210 213 211 205 202 203 203 205 209 212 212 212 215 215 215 213 209 205 204 203 200 197 197 199 199 197 196 195 196 197 198 199 201 203 203 205 207 207 203 201 204 208 210 211 212 212 214 214 211 208 210 213 217 217 217 218 217 214 212 210 209 210 209 206 203 202 201 201 202 203 204 206 208 211 214 216 219 222 225
178 177 178 185 194 200 203 208 211 208 203 200 201 203 204 208 212 213 213 214 215 214 213 210 206 204 204 202 199 199 200 200 197 195 195 197 198 200 201 203 205 205 203 204 205 201 199 201 206 210 213 215 216 217 215 211 209 210 214 216 218 218 219 218 214 211 211 211 210 209 206 203 203 202 203 205 207 208 211 213 216 217 219 222 226 229
171 171 171 177 190 198 201 206 209 205 200 199 200 202 204 207 210 213 214 215 215 213 212 210 207 205 205 203 200 201 202 200 197 196 196 197 199 202 203 205 208 207 204 202 202 199 198 201 206 209 213 217 219 219 216 211 209 211 214 216 217 218 219 217 214 212 213 213 212 210 209 209 208 208 209 211 212 213 216 218 220 222 224 226 228 231
176 172 171 177 189 197 201 207 209 203 198 199 200 200 203 207 211 212 213 215 215 213 212 211 208 206 206 204 201 202 203 201 198 198 198 198 200 204 206 207 210 210 206 203 200 198 199 203 207 209 213 217 220 219 215 211 210 211 214 215 217 218 219 217 215 215 214 213 213 213 213 214 215 216 216 217 217 218 219 221 224 226 227 229 230 232
179 169 170 179 189 197 203 208 208 202 198 198 200 200 201 205 211 213 213 214 214 213 213 212 210 208 207 204 202 202 204 203 200 200 201 201 202 206 209 209 211 211 208 205 202 200 201 204 207 210 213 216 219 218 215 212 212 213 214 215 216 218 219 220 220 219 217 214 214 216 217 218 219 220 221 223 222 220 221 222 224 225 227 229 233 235
177 168 171 182 192 201 207 209 206 201 199 198 199 201 202 204 208 213 214 213 212 212 213 213 212 211 208 205 203 203 204 204 202 202 203 203 204 208 211 212 213 213 210 208 205 203 203 203 205 209 212 215 217 218 215 213 212 213 214 216 217 219 221 223 225 226 224 220 218 219 220 220 221 221 224 227 227 225 225 225 224 224 225 227 231 235
172 166 171 184 196 205 209 207 203 199 200 201 200 200 203 204 207 211 213 212 210 211 213 213 213 213 211 208 205 204 205 205 204 204 205 205 206 209 213 215 216 215 214 212 208 204 203 203 204 207 210 213 217 218 216 212 211 212 213 215 217 219 222 226 230 232 232 230 227 224 224 224 225 224 224 226 228 229 230 229 227 226 227 227 230 234
171 168 172 183 197 206 207 205 201 199 200 203 202 202 203 205 206 209 211 209 208 212 214 213 212 212 212 210 208 206 206 206 206 206 207 207 207 209 213 216 217 217 216 215 212 207 203 203 204 206 209 212 215 219 219 215 212 212 213 215 217 220 223 228 233 236 237 238 237 234 232 233 233 231 229 229 230 232 234 233 231 231 230 231 233 236
174 176 177 180 192 206 210 206 202 200 202 204 204 204 205 205 206 208 208 206 209 215 218 215 212 211 211 211 210 209 208 208 208 208 208 208 208 210 213 216 218 218 218 218 216 211 205 203 204 206 208 211 214 218 221 220 217 216 217 218 220 222 225 229 233 236 238 240 241 241 240 240 241 240 239 239 239 240 242 242 240 237 235 235 237 241
Height
5832 5834 5837 5843 5849 5851 5853 5855 5857 5860 5862 5864 5866 5867 5868 5871 5874 5876 5878 5879 5879 5880 5884 5887 5889 5890 5891 5893 5895 5896 5898 5899 5900 5901 5901 5902 5903 5904 5906 5907 5907 5907 5906 5906 5907 5908 5909 5909 5911 5912 5914 5916 5917 5919 5920 5922 5923 5925 5927 5929 5931 5933 5935 5937 5938 5939 5941 5942 5943 5943 5943 5944 5945 5945 5946 5947 5948 5949 5950 5951 5951 5951 5952 5952 5952 5953
5826 5829 5836 5844 5846 5846 5847 5849 5852 5855 5858 5860 5862 5863 5865 5867 5870 5873 5874 5876 5876 5877 5881 5883 5886 5887 5888 5891 5892 5894 5896 5898 5899 5900 5900 5901 5902 5903 5904 5905 5906 5906 5906 5906 5906 5908 5908 5909 5910 5912 5913 5915 5917 5918 5919 5921 5922 5924 5926 5928 5930 5933 5935 5936 5937 5939 5940 5941 5942 5942 5943 5944 5945 5945 5946 5947 5949 5950 5951 5951 5952 5952 5952 5952 5953 5954
5821 5827 5836 5840 5840 5841 5843 5845 5847 5850 5853 5855 5857 5859 5862 5864 5868 5870 5870 5873 5874 5875 5878 5880 5883 5885 5885 5887 5888 5891 5895 5897 5898 5898 5898 5899 5900 5901 5903 5903 5904 5905 5906 5906 5905 5907 5908 5909 5910 5911 5913 5914 5916 5917 5919 5920 5922 5924 5926 5928 5930 5932 5934 5935 5937 5938 5939 5940 5941 5943 5944 5945 5945 5946 5947 5948 5949 5950 5951 5952 5952 5953 5953 5953 5954 5955
5818 5828 5836 5835 5834 5837 5838 5840 5843 5846 5848 5849 5851 5855 5858 5862 5866 5867 5866 5868 5870 5872 5874 5876 5879 5881 5881 5883 5885 5889 5893 5895 5895 5895 5894 5896 5898 5899 5900 5901 5902 5903 5904 5905 5905 5906 5907 5908 5909 5911 5912 5914 5915 5917 5919 5920 5922 5923 5925 5927 5929 5931 5933 5935 5936 5937 5939 5940 5942 5943 5945 5946 5947 5948 5948 5949 5950 5951 5952 5952 5953 5954 5954 5954 5955 5955
5816 5826 5829 5826 5829 5832 5834 5836 5839 5842 5844 5846 5848 5851 5856 5860 5863 5864 5863 5864 5867 5869 5872 5874 5875 5876 5878 5880 5883 5887 5889 5892 5893 5893 5893 5894 5896 5896 5898 5900 5901 5902 5903 5904 5904 5904 5906 5907 5909 5910 5912 5913 5915 5916 5918 5920 5921 5922 5924 5926 5928 5930 5932 5934 5935 5937 5939 5941 5942 5944 5945 5946 5948 5949 5949 5950 5950 5951 5951 5952 5953 5954 5954 5955 5955 5956
5811 5820 5821 5819 5824 5828 5829 5832 5835 5838 5841 5843 5845 5849 5853 5857 5859 5861 5861 5861 5863 5865 5868 5870 5869 5872 5875 5877 5880 5883 5885 5889 5891 5892 5893 5894 5894 5895 5897 5899 5901 5902 5902 5903 5904 5904 5905 5906 5908 5909 5911 5913 5914 5915 5917 5919 5920 5921 5923 5924 5926 5929 5931 5932 5935 5937 5939 5941 5942 5943 5945 5946 5947 5948 5948 5949 5949 5950 5951 5952 5953 5953 5954 5955 5956 5956
5806 5814 5815 5814 5818 5821 5823 5827 5830 5834 5837 5839 5844 5848 5850 5852 5854 5857 5858 5858 5858 5860 5864 5865 5865 5869 5872 5873 5877 5879 5882 5886 5888 5890 5892 5892 5893 5895 5897 5899 5900 5901 5902 5902 5903 5904 5904 5906 5907 5908 5910 5911 5913 5914 5916 5917 5919 5921 5922 5924 5925 5927 5929 5932 5934 5937 5938 5940 5941 5943 5943 5944 5945 5946 5947 5948 5949 5950 5951 5952 5953 5953 5954 5955 5956 5956
5802 5808 5808 5809 5813 5816 5817 5822 5828 5832 5834 5838 5843 5844 5844 5846 5849 5853 5854 5853 5854 5856 5859 5860 5861 5864 5867 5869 5873 5875 5877 5881 5884 5887 5890 5891 5892 5895 5896 5898 5899 5900 5901 5901 5902 5903 5904 5905 5906 5908 5909 5910 5912 5913 5915 5917 5918 5920 5922 5923 5925 5926 5929 5931 5933 5936 5937 5939 5940 5942 5943 5944 5945 5946 5947 5948 5949 5950 5951 5952 5953 5953 5954 5955 5956 5956
5798 5802 5803 5805 5809 5812 5816 5822 5826 5828 5829 5836 5839 5837 5838 5842 5844 5846 5848 5849 5851 5852 5852 5855 5857 5858 5862 5867 5870 5871 5873 5876 5880 5885 5888 5890 5892 5894 5895 5897 5898 5899 5900 5900 5901 5902 5902 5903 5905 5906 5908 5909 5910 5912 5914 5915 5917 5918 5921 5922 5924 5925 5928 5930 5933 5934 5936 5938 5939 5941 5942 5943 5944 5946 5947 5948 5950 5951 5952 5952 5953 5953 5954 5955 5956 5956
5792 5796 5797 5800 5803 5809 5815 5819 5820 5820 5824 5831 5832 5830 5833 5836 5838 5840 5841 5844 5847 5843 5843 5850 5853 5852 5858 5864 5865 5866 5869 5873 5879 5884 5886 5888 5891 5892 5894 5895 5896 5898 5899 5899 5900 5900 5901 5901 5902 5904 5906 5907 5909 5910 5912 5914 5915 5917 5919 5921 5923 5925 5927 5929 5931 5933 5935 5936 5938 5940 5942 5943 5944 5946 5947 5948 5949 5951 5952 5953 5953 5953 5954 5955 5955 5955
5785 5789 5790 5793 5798 5804 5810 5811 5812 5814 5819 5825 5823 5823 5827 5829 5831 5834 5835 5840 5840 5834 5837 5847 5850 5849 5853 5859 5860 5862 5869 5874 5878 5881 5883 5886 5889 5891 5892 5893 5894 5896 5897 5898 5898 5899 5900 5900 5901 5903 5904 5906 5907 5909 5911 5913 5915 5917 5918 5920 5922 5924 5926 5928 5930 5932 5933 5935 5937 5939 5941 5943 5944 5946 5947 5947 5948 5950 5951 5952 5953 5954 5954 5955 5955 5955
5777 5782 5784 5788 5792 5797 5802 5804 5806 5809 5814 5817 5815 5816 5820 5823 5825 5827 5830 5832 5829 5827 5835 5844 5847 5845 5847 5854 5858 5861 5868 5872 5874 5878 5881 5883 5886 5889 5891 5892 5893 5895 5896 5897 5897 5898 5899 5900 5902 5902 5903 5905 5907 5908 5909 5911 5913 5915 5917 5919 5921 5923 5926 5927 5929 5930 5932 5934 5936 5938 5940 5942 5943 5945 5946 5947 5948 5949 5950 5951 5952 5954 5954 5955 5955 5956
5771 5776 5778 5782 5785 5789 5795 5798 5800 5803 5807 5809 5808 5809 5813 5816 5818 5820 5822 5823 5823 5828 5834 5840 5843 5839 5840 5851 5857 5858 5864 5869 5871 5875 5878 5880 5883 5886 5889 5890 5892 5893 5894 5895 5896 5897 5898 5899 5901 5902 5903 5904 5905 5907 5908 5909 5912 5914 5916 5918 5920 5922 5924 5926 5927 5929 5931 5933 5935 5937 5939 5941 5942 5944 5945 5947 5948 5948 5949 5950 5952 5953 5954 5955 5955 5956
5764 5769 5770 5773 5778 5782 5788 5791 5794 5798 5801 5802 5802 5804 5807 5809 5811 5814 5818 5819 5823 5828 5831 5836 5839 5832 5835 5848 5853 5855 5862 5866 5869 5871 5874 5877 5880 5884 5886 5888 5889 5890 5892 5893 5895 5896 5897 5899 5900 5900 5901 5902 5904 5906 5907 5908 5910 5912 5915 5917 5918 5920 5922 5924 5926 5928 5930 5932 5934 5936 5937 5939 5941 5943 5944 5946 5947 5948 5949 5950 5951 5952 5953 5954 5955 5956
5756 5760 5762 5765 5770 5775 5782 5785 5790 5795 5798 5799 5801 5803 5804 5806 5810 5814 5817 5818 5821 5825 5827 5831 5833 5827 5832 5845 5851 5856 5860 5863 5865 5867 5870 5874 5877 5880 5882 5884 5886 5888 5889 5891 5893 5895 5896 5897 5898 5898 5900 5901 5902 5904 5905 5907 5909 5911 5913 5915 5917 5919 5920 5923 5925 5926 5928 5930 5932 5934 5936 5938 5939 5941 5943 5944 5946 5947 5948 5949 5950 5952 5953 5954 5955 5956
5748 5753 5756 5760 5764 5769 5775 5779 5784 5788 5792 5795 5797 5797 5798 5803 5810 5814 5816 5818 5821 5824 5823 5823 5825 5825 5830 5842 5852 5855 5857 5859 5862 5864 5868 5872 5874 5876 5878 5880 5884 5886 5888 5890 5891 5893 5895 5896 5896 5897 5898 5900 5901 5902 5904 5906 5907 5909 5911 5913 5915 5917 5919 5920 5922 5925 5926 5928 5930 5932 5934 5936 5938 5939 5941 5943 5945 5946 5947 5948 5949 5951 5952 5953 5955 5956
5740 5745 5749 5754 5759 5763 5768 5772 5778 5782 5786 5789 5790 5791 5796 5803 5808 5810 5812 5814 5817 5819 5817 5815 5822 5828 5831 5841 5851 5853 5853 5857 5860 5862 5865 5868 5871 5873 5875 5878 5882 5884 5886 5888 5890 5892 5893 5895 5896 5896 5897 5899 5900 5901 5902 5904 5905 5907 5909 5911 5913 5915 5917 5919 5920 5922 5924 5926 5928 5930 5932 5935 5936 5938 5939 5941 5943 5944 5946 5947 5948 5950 5951 5953 5954 5955
5732 5738 5742 5748 5753 5756 5762 5768 5774 5778 5781 5784 5786 5790 5796 5800 5801 5801 5804 5808 5809 5811 5809 5809 5819 5828 5830 5838 5848 5850 5852 5855 5858 5860 5862 5865 5867 5870 5873 5877 5879 5882 5884 5886 5888 5890 5891 5893 5894 5895 5896 5897 5899 5900 5901 5902 5903 5904 5906 5908 5910 5912 5915 5917 5918 5920 5921 5924 5926 5928 5930 5933 5934 5936 5937 5939 5941 5943 5945 5946 5947 5949 5950 5951 5953 5954
5726 5731 5735 5742 5746 5750 5756 5762 5767 5772 5776 5781 5784 5788 5791 5792 5793 5795 5797 5801 5803 5804 5804 5805 5815 5824 5827 5834 5844 5848 5850 5853 5856 5858 5860 5862 5865 5868 5872 5875 5878 5880 5881 5884 5885 5887 5889 5891 5892 5893 5894 5896 5897 5898 5899 5900 5901 5902 5904 5906 5908 5910 5912 5913 5915 5917 5919 5921 5924 5926 5928 5930 5932 5934 5935 5937 5939 5941 5943 5945 5946 5948 5949 5950 5951 5953
5719 5723 5728 5735 5739 5744 5749 5754 5760 5765 5770 5775 5778 5780 5782 5784 5788 5791 5794 5799 5801 5801 5802 5804 5810 5818 5824 5832 5841 5846 5849 5851 5854 5856 5858 5860 5863 5866 5871 5873 5876 5878 5880 5882 5883 5884 5887 5889 5890 5892 5893 5894 5895 5896 5897 5898 5899 5901 5902 5904 5906 5908 5909 5911 5913 5915 5916 5919 5921 5923 5926 5928 5930 5932 5934 5935 5937 5939 5941 5943 5944 5946 5947 5949 5950 5952
5712 5715 5721 5728 5733 5737 5742 5747 5753 5759 5762 5767 5770 5771 5775 5778 5782 5785 5789 5795 5798 5798 5800 5801 5805 5814 5824 5831 5837 5843 5847 5849 5851 5854 5857 5859 5861 5865 5868 5871 5874 5876 5878 5880 5881 5882 5885 5887 5888 5890 5891 5892 5892 5893 5894 5896 5897 5899 5900 5902 5904 5906 5908 5910 5912 5913 5915 5917 5919 5921 5924 5926 5928 5930 5932 5934 5936 5937 5939 5941 5943 5944 5946 5947 5949 5950
5704 5708 5713 5720 5725 5730 5736 5742 5748 5752 5755 5759 5762 5764 5769 5774 5776 5779 5783 5788 5791 5792 5795 5797 5801 5811 5822 5828 5832 5838 5843 5846 5849 5852 5855 5857 5859 5862 5866 5869 5872 5874 5876 5878 5879 5880 5882 5884 5886 5887 5888 5889 5889 5891 5892 5894 5895 5897 5898 5900 5902 5904 5906 5908 5910 5912 5913 5915 5917 5919 5922 5923 5925 5927 5929 5931 5934 5935 5937 5939 5941 5942 5944 5946 5947 5948
5696 5700 5706 5713 5719 5725 5732 5737 5740 5745 5748 5753 5756 5760 5765 5769 5770 5774 5778 5784 5788 5789 5791 5794 5795 5805 5818 5824 5827 5833 5838 5842 5845 5848 5851 5854 5857 5860 5863 5866 5868 5871 5873 5875 5876 5878 5880 5882 5883 5884 5885 5886 5888 5889 5890 5892 5893 5895 5897 5898 5900 5902 5904 5906 5907 5909 5911 5913 5915 5917 5919 5921 5923 5925 5927 5929 5932 5934 5935 5937 5938 5940 5942 5944 5945 5946
5690 5694 5700 5707 5715 5721 5727 5729 5733 5738 5742 5746 5750 5754 5760 5763 5765 5770 5775 5780 5783 5784 5788 5790 5790 5801 5817 5822 5824 5828 5833 5837 5840 5843 5847 5851 5854 5857 5860 5862 5865 5868 5870 5872 5874 5875 5877 5878 5880 5881 5883 5884 5886 5887 5888 5890 5891 5893 5895 5896 5898 5900 5901 5903 5905 5906 5908 5911 5912 5914 5916 5918 5921 5923 5925 5927 5930 5931 5933 5935 5936 5938 5940 5942 5943 5944
5683 5687 5692 5700 5708 5714 5718 5721 5725 5731 5735 5740 5745 5748 5753 5757 5761 5767 5771 5775 5778 5780 5785 5786 5786 5799 5816 5820 5820 5824 5827 5832 5836 5838 5842 5846 5849 5853 5855 5858 5861 5864 5866 5868 5870 5872 5873 5875 5878 5880 5881 5883 5885 5886 5887 5889 5890 5891 5893 5894 5896 5898 5899 5900 5902 5904 5906 5908 5910 5911 5914 5916 5919 5921 5923 5925 5927 5929 5931 5933 5935 5936 5938 5940 5941 5943
5675 5679 5685 5692 5698 5704 5709 5712 5716 5722 5728 5733 5738 5742 5747 5752 5757 5762 5765 5768 5773 5777 5783 5783 5784 5799 5814 5817 5817 5820 5823 5827 5832 5835 5838 5841 5845 5849 5851 5854 5857 5859 5862 5864 5866 5868 5870 5873 5875 5877 5879 5882 5883 5885 5886 5888 5889 5889 5891 5892 5894 5895 5896 5898 5899 5901 5903 5905 5907 5910 5912 5914 5917 5920 5922 5923 5925 5927 5929 5931 5933 5934 5936 5938 5939 5940
5667 5672 5678 5683 5690 5697 5703 5707 5711 5717 5723 5728 5732 5737 5741 5746 5752 5756 5759 5763 5768 5775 5779 5780 5785 5800 5811 5813 5813 5815 5819 5823 5827 5830 5834 5837 5840 5843 5846 5849 5852 5855 5858 5859 5861 5863 5865 5868 5871 5874 5877 5879 5881 5883 5885 5887 5888 5888 5889 5890 5891 5892 5894 5895 5897 5899 5901 5903 5905 5907 5910 5913 5915 5917 5919 5921 5922 5924 5926 5928 5930 5932 5934 5936 5937 5938
5661 5666 5671 5676 5683 5691 5697 5701 5706 5712 5717 5723 5727 5732 5737 5742 5746 5750 5754 5759 5765 5771 5774 5776 5785 5799 5806 5808 5810 5812 5814 5818 5821 5824 5828 5831 5834 5837 5840 5843 5846 5849 5852 5854 5856 5858 5861 5864 5867 5870 5873 5876 5879 5880 5882 5884 5886 5887 5887 5888 5889 5890 5891 5893 5895 5897 5899 5900 5903 5905 5908 5910 5912 5914 5916 5918 5920 5922 5924 5926 5928 5930 5932 5933 5935 5936
5655 5660 5665 5670 5677 5684 5690 5696 5701 5706 5712 5718 5723 5728 5732 5737 5741 5746 5751 5757 5763 5766 5768 5775 5787 5797 5801 5804 5808 5809 5810 5814 5816 5819 5822 5825 5828 5831 5834 5837 5840 5844 5846 5849 5851 5854 5858 5861 5864 5867 5870 5873 5875 5877 5879 5881 5883 5885 5885 5886 5887 5888 5889 5891 5893 5894 5896 5899 5901 5903 5905 5907 5909 5911 5913 5915 5917 5920 5922 5924 5926 5928 5929 5931 5933 5934
5651 5655 5659 5663 5669 5678 5685 5690 5695 5699 5706 5712 5718 5723 5727 5732 5737 5742 5748 5754 5758 5759 5765 5776 5787 5793 5796 5801 5805 5805 5806 5808 5811 5815 5818 5820 5823 5826 5828 5832 5835 5839 5841 5844 5847 5850 5853 5857 5861 5864 5866 5869 5872 5874 5876 5878 5881 5883 5884 5885 5885 5886 5888 5889 5891 5893 5895 5897 5899 5900 5901 5903 5906 5908 5910 5913 5915 5918 5920 5922 5923 5925 5927 5929 5931 5932
5646 5650 5654 5658 5664 5672 5679 5684 5689 5694 5700 5707 5713 5718 5722 5727 5733 5739 5745 5750 5752 5755 5763 5774 5782 5788 5793 5797 5799 5801 5802 5804 5807 5812 5815 5817 5819 5821 5824 5827 5831 5834 5837 5840 5843 5846 5849 5853 5857 5860 5862 5865 5868 5871 5873 5876 5878 5880 5881 5882 5883 5885 5886 5887 5889 5891 5893 5895 5896 5897 5899 5901 5903 5906 5908 5911 5913 5915 5917 5919 5921 5923 5925 5927 5929 5930
5643 5646 5650 5653 5658 5665 5673 5678 5683 5689 5696 5701 5707 5713 5717 5722 5729 5735 5741 5745 5748 5752 5760 5769 5778 5785 5789 5791 5794 5796 5799 5801 5804 5808 5811 5814 5816 5818 5821 5824 5827 5830 5832 5835 5838 5842 5846 5849 5852 5856 5859 5862 5865 5868 5870 5873 5875 5877 5879 5880 5882 5882 5883 5885 5887 5889 5891 5892 5893 5895 5897 5899 5901 5904 5906 5908 5910 5912 5914 5916 5919 5921 5923 5925 5927 5928
5639 5642 5645 5648 5652 5660 5668 5672 5678 5685 5690 5694 5702 5709 5714 5719 5726 5732 5736 5739 5742 5748 5756 5765 5774 5781 5784 5787 5790 5793 5795 5798 5800 5804 5808 5812 5814 5816 5819 5821 5824 5826 5830 5834 5838 5842 5845 5847 5849 5853 5856 5860 5863 5865 5868 5870 5873 5875 5877 5878 5879 5880 5881 5883 5885 5887 5888 5889 5891 5893 5895 5897 5899 5902 5904 5906 5908 5910 5912 5914 5917 5919 5921 5922 5924 5926
5635 5638 5641 5643 5648 5656 5662 5667 5674 5678 5682 5689 5700 5707 5710 5715 5722 5727 5730 5733 5737 5744 5753 5763 5771 5777 5781 5784 5786 5789 5792 5795 5797 5801 5805 5809 5811 5814 5816 5819 5822 5825 5828 5832 5836 5838 5841 5843 5846 5850 5853 5857 5860 5863 5865 5867 5870 5872 5874 5875 5875 5877 5878 5880 5882 5883 5885 5887 5889 5891 5893 5895 5897 5899 5901 5903 5905 5907 5910 5913 5915 5916 5918 5920 5922 5924
5630 5634 5637 5640 5646 5652 5657 5662 5666 5670 5676 5687 5697 5702 5705 5711 5717 5722 5725 5728 5734 5741 5749 5758 5766 5773 5777 5780 5784 5787 5790 5792 5795 5798 5802 5806 5808 5811 5815 5818 5820 5823 5825 5828 5831 5834 5836 5839 5842 5846 5849 5853 5856 5858 5861 5864 5866 5868 5870 5872 5873 5874 5876 5877 5879 5880 5882 5884 5887 5889 5891 5893 5895 5897 5899 5901 5903 5906 5908 5910 5912 5914 5916 5918 5919 5921
5626 5629 5633 5637 5642 5647 5651 5655 5659 5666 5675 5683 5691 5696 5701 5706 5712 5717 5721 5724 5731 5738 5745 5754 5762 5769 5774 5777 5781 5784 5787 5790 5793 5796 5800 5803 5806 5810 5813 5816 5818 5820 5822 5824 5827 5830 5832 5835 5839 5842 5846 5849 5852 5854 5857 5860 5863 5865 5867 5869 5870 5872 5873 5875 5876 5878 5879 5882 5884 5887 5889 5891 5893 5895 5897 5899 5902 5904 5906 5908 5910 5912 5913 5915 5917 5918
5621 5624 5629 5634 5638 5643 5647 5652 5658 5666 5672 5677 5685 5692 5697 5703 5709 5714 5718 5721 5727 5734 5741 5750 5759 5765 5770 5774 5778 5781 5784 5787 5790 5793 5797 5800 5804 5808 5811 5813 5815 5817 5819 5821 5823 5826 5828 5831 5834 5838 5841 5845 5848 5851 5854 5857 5860 5862 5864 5866 5867 5869 5871 5872 5874 5875 5877 5880 5883 5885 5887 5889 5891 5893 5895 5898 5900 5902 5904 5906 5907 5909 5911 5912 5914 5916
5615 5620 5625 5629 5634 5639 5644 5649 5655 5661 5666 5673 5682 5690 5695 5700 5706 5711 5714 5717 5722 5729 5737 5747 5755 5761 5765 5769 5774 5778 5781 5784 5787 5791 5794 5798 5802 5806 5809 5811 5813 5815 5816 5818 5820 5823 5825 5828 5831 5834 5838 5841 5844 5847 5851 5853 5856 5859 5861 5863 5865 5867 5869 5870 5872 5874 5876 5878 5881 5883 5885 5887 5889 5891 5894 5896 5898 5900 5902 5903 5905 5906 5908 5910 5912 5913
5610 5615 5620 5625 5630 5635 5641 5647 5652 5657 5663 5671 5680 5687 5693 5697 5702 5707 5710 5712 5718 5725 5734 5742 5750 5755 5760 5764 5769 5774 5777 5781 5785 5788 5792 5796 5799 5803 5805 5808 5811 5813 5815 5816 5817 5820 5822 5825 5828 5831 5834 5837 5840 5844 5847 5850 5853 5856 5858 5860 5862 5864 5866 5868 5870 5872 5874 5876 5878 5880 5883 5885 5887 5890 5892 5894 5896 5898 5899 5901 5902 5904 5906 5907 5909 5911
5604 5610 5616 5621 5627 5632 5639 5645 5651 5656 5662 5670 5677 5683 5689 5693 5697 5702 5705 5708 5715 5722 5730 5738 5745 5750 5755 5760 5766 5770 5774 5777 5782 5786 5790 5793 5796 5799 5802 5805 5808 5811 5813 5814 5815 5817 5819 5822 5825 5828 5831 5835 5838 5840 5843 5846 5849 5852 5855 5857 5860 5862 5865 5867 5869 5870 5872 5874 5876 5878 5881 5883 5886 5888 5890 5892 5894 5896 5897 5899 5900 5902 5904 5906 5907 5908
5600 5605 5612 5619 5624 5630 5637 5644 5649 5653 5660 5667 5674 5680 5685 5689 5693 5697 5701 5707 5713 5719 5726 5735 5742 5747 5751 5757 5762 5766 5770 5774 5779 5783 5787 5790 5793 5796 5799 5802 5805 5808 5811 5813 5814 5815 5817 5820 5823 5827 5830 5833 5835 5837 5840 5843 5846 5850 5852 5855 5858 5861 5863 5865 5866 5868 5870 5872 5874 5877 5879 5882 5884 5886 5888 5890 5892 5894 5895 5897 5899 5901 5902 5904 5905 5907
5597 5602 5608 5616 5622 5628 5635 5642 5646 5650 5657 5664 5670 5677 5683 5687 5689 5694 5700 5706 5711 5716 5724 5732 5739 5743 5748 5753 5758 5763 5767 5771 5775 5779 5783 5787 5790 5793 5795 5798 5801 5804 5808 5811 5812 5814 5816 5818 5821 5824 5827 5830 5832 5835 5837 5840 5845 5848 5850 5853 5856 5859 5861 5863 5864 5866 5869 5871 5873 5875 5877 5880 5882 5884 5886 5888 5890 5892 5894 5896 5897 5899 5900 5902 5903 5905
5597 5601 5608 5615 5621 5626 5633 5639 5643 5647 5654 5661 5668 5674 5680 5684 5687 5693 5699 5703 5708 5714 5722 5729 5735 5740 5744 5749 5754 5759 5763 5767 5772 5777 5780 5784 5787 5790 5792 5795 5798 5801 5804 5808 5810 5812 5814 5817 5819 5822 5825 5827 5830 5832 5835 5838 5843 5846 5849 5852 5855 5858 5859 5861 5864 5866 5868 5870 5872 5873 5876 5878 5880 5882 5884 5886 5889 5890 5892 5894 5895 5897 5898 5900 5901 5903
5599 5604 5610 5616 5620 5625 5631 5636 5640 5645 5652 5659 5665 5671 5676 5681 5685 5691 5695 5699 5705 5712 5719 5725 5731 5736 5740 5746 5751 5755 5759 5763 5769 5774 5777 5780 5783 5787 5789 5792 5795 5798 5801 5805 5808 5809 5812 5814 5817 5820 5823 5825 5828 5830 5833 5837 5841 5844 5847 5850 5853 5855 5858 5860 5862 5865 5866 5868 5870 5872 5874 5876 5878 5880 5882 5884 5886 5888 5890 5892 5893 5895 5896 5897 5899 5900
5602 5606 5611 5616 5619 5624 5630 5635 5638 5643 5650 5656 5662 5668 5674 5678 5682 5687 5693 5697 5703 5710 5716 5722 5728 5732 5737 5742 5747 5751 5755 5760 5766 5770 5773 5776 5780 5783 5786 5789 5792 5795 5799 5802 5805 5807 5809 5812 5815 5818 5820 5823 5825 5828 5831 5835 5838 5841 5844 5847 5850 5853 5856 5858 5860 5862 5863 5865 5867 5870 5872 5874 5875 5877 5879 5881 5883 5885 5887 5889 5890 5892 5893 5894 5896 5897
5605 5607 5611 5616 5619 5624 5630 5635 5639 5644 5649 5654 5660 5666 5671 5676 5679 5684 5690 5695 5700 5707 5713 5719 5724 5728 5733 5738 5743 5747 5752 5757 5762 5766 5769 5773 5777 5780 5783 5786 5790 5793 5796 5799 5802 5805 5807 5810 5812 5815 5818 5820 5823 5826 5829 5832 5835 5838 5841 5844 5847 5850 5853 5855 5857 5858 5859 5862 5865 5867 5869 5871 5873 5874 5876 5878 5880 5882 5883 5885 5887 5889 5890 5891 5893 5894
5606 5609 5613 5616 5620 5624 5629 5633 5637 5642 5647 5653 5658 5663 5668 5673 5677 5681 5686 5692 5698 5705 5710 5715 5720 5724 5728 5734 5739 5743 5748 5753 5758 5762 5766 5770 5774 5777 5780 5783 5787 5790 5794 5797 5799 5802 5805 5807 5810 5813 5815 5817 5820 5823 5826 5829 5831 5834 5837 5840 5844 5847 5849 5851 5853 5854 5856 5858 5861 5863 5865 5867 5868 5870 5872 5874 5876 5878 5879 5881 5883 5885 5887 5888 5889 5890
5607 5610 5614 5617 5620 5624 5628 5631 5635 5641 5645 5650 5655 5660 5666 5670 5674 5678 5683 5689 5695 5701 5706 5711 5716 5720 5725 5730 5735 5739 5744 5749 5754 5758 5762 5766 5771 5774 5777 5780 5784 5788 5791 5794 5797 5799 5802 5805 5807 5810 5812 5815 5817 5820 5823 5826 5829 5831 5834 5837 5840 5843 5846 5848 5849 5850 5852 5854 5856 5858 5860 5862 5864 5866 5867 5869 5872 5874 5875 5876 5878 5880 5882 5884 5885 5886
5608 5611 5614 5617 5620 5623 5626 5630 5634 5639 5643 5647 5652 5657 5663 5667 5671 5676 5681 5687 5693 5698 5702 5707 5711 5716 5721 5726 5730 5735 5740 5745 5750 5754 5758 5762 5767 5771 5774 5777 5781 5785 5788 5791 5794 5796 5798 5801 5804 5807 5810 5812 5815 5817 5820 5824 5826 5829 5832 5834 5837 5840 5843 5844 5845 5847 5848 5851 5853 5855 5856 5857 5859 5861 5863 5865 5868 5869 5870 5872 5874 5876 5878 5879 5880 5882
5610 5612 5614 5617 5619 5621 5624 5627 5631 5636 5640 5644 5649 5654 5659 5664 5669 5674 5679 5684 5690 5695 5698 5702 5707 5711 5716 5722 5727 5731 5735 5740 5745 5750 5754 5758 5763 5767 5771 5774 5778 5782 5785 5788 5791 5793 5795 5798 5801 5804 5807 5809 5812 5814 5817 5821 5824 5826 5829 5832 5834 5837 5839 5840 5842 5843 5845 5847 5849 5850 5852 5853 5855 5858 5860 5862 5864 5865 5866 5869 5871 5872 5873 5875 5876 5877
5611 5612 5614 5617 5619 5621 5623 5626 5630 5635 5639 5642 5646 5652 5657 5662 5667 5671 5676 5681 5687 5690 5694 5697 5701 5707 5712 5718 5722 5727 5731 5736 5741 5746 5750 5754 5759 5763 5767 5771 5774 5778 5782 5785 5787 5790 5792 5795 5798 5801 5804 5807 5809 5811 5814 5817 5821 5824 5826 5829 5831 5833 5835 5836 5838 5839 5841 5842 5844 5846 5848 5850 5852 5854 5856 5858 5860 5861 5863 5865 5867 5868 5869 5870 5871 5873